Volver al catálogo

STARLINK-30600

ActivoComunicacionesVLEO
NORAD 58100·PAYLOAD·🇺🇸 United States

Lanzado Oct 21, 2023 desde Vandenberg Space Force Base

Loading…

Próximos Pases (próximas 24 horas)

TLE

ActualizadoSource: CelesTrak SupGP

Época: Sep 15, 2026, 01:57 UTC

1 58100C 23161D   26258.08173611  .00046784  00000+0  13824-2 0  2583
2 58100  53.1605   2.6842 0001139  88.6616 233.4809 15.34363307    12

Sigue STARLINK-30600 en tiempo real con AllMySat

Download on the App Store